Time,TemperatureF,DewpointF,PressureIn,WindDirection,WindDirectionDegrees,WindSpeedMPH,WindSpeedGustMPH,Humidity,HourlyPrecipIn,Conditions,Clouds,dailyrainin,SoftwareType,DateUTC
2013-01-06 00:00:00,66.9,62.5,30.17,NE,45,0.0,0.0,86,0.00,,,0.00,WUHU216HW,2013-01-06 05:00:00,
2013-01-06 00:01:00,66.9,62.5,30.17,NE,45,0.0,0.0,86,0.00,,,0.00,WUHU216HW,2013-01-06 05:01:00,
2013-01-06 00:03:00,66.9,62.5,30.18,NE,45,1.3,1.3,86,0.00,,,0.00,WUHU216HW,2013-01-06 05:03:00,
2013-01-06 00:06:00,66.9,62.5,30.17,NE,45,0.0,1.3,86,0.00,,,0.00,WUHU216HW,2013-01-06 05:06:00,
2013-01-06 00:11:00,66.9,62.5,30.17,NE,45,0.0,1.3,86,0.00,,,0.00,WUHU216HW,2013-01-06 05:11:00,
2013-01-06 00:16:00,66.9,62.8,30.17,NE,45,0.0,1.7,87,0.00,,,0.00,WUHU216HW,2013-01-06 05:16:00,
2013-01-06 00:21:00,66.9,62.8,30.17,NE,45,0.4,1.7,87,0.00,,,0.00,WUHU216HW,2013-01-06 05:21:00,
2013-01-06 00:26:00,66.9,62.8,30.16,NE,45,0.0,1.7,87,0.00,,,0.00,WUHU216HW,2013-01-06 05:26:00,
2013-01-06 00:31:00,66.9,62.8,30.17,NE,45,0.0,0.6,87,0.00,,,0.00,WUHU216HW,2013-01-06 05:31:00,
2013-01-06 00:36:00,66.9,62.8,30.16,NE,45,0.0,0.0,87,0.00,,,0.00,WUHU216HW,2013-01-06 05:36:00,
2013-01-06 00:41:00,66.7,62.7,30.16,NE,45,0.0,0.8,87,0.00,,,0.00,WUHU216HW,2013-01-06 05:41:00,
2013-01-06 00:46:00,66.7,62.7,30.16,NE,45,0.0,0.8,87,0.00,,,0.00,WUHU216HW,2013-01-06 05:46:00,
2013-01-06 00:51:00,66.7,62.7,30.15,NE,45,2.0,2.6,87,0.00,,,0.00,WUHU216HW,2013-01-06 05:51:00,
2013-01-06 00:56:00,66.7,62.7,30.15,NE,45,0.0,2.6,87,0.00,,,0.00,WUHU216HW,2013-01-06 05:56:00,
2013-01-06 01:01:00,66.7,63.0,30.15,NE,45,0.8,1.7,88,0.00,,,0.00,WUHU216HW,2013-01-06 06:01:00,
2013-01-06 01:06:00,66.7,63.0,30.15,NE,45,0.6,1.3,88,0.00,,,0.00,WUHU216HW,2013-01-06 06:06:00,
2013-01-06 01:11:00,66.5,62.8,30.15,NE,45,0.0,2.2,88,0.00,,,0.00,WUHU216HW,2013-01-06 06:11:00,
2013-01-06 01:16:00,66.7,63.0,30.15,NE,45,0.0,2.2,88,0.00,,,0.00,WUHU216HW,2013-01-06 06:16:00,
2013-01-06 01:21:00,66.5,62.8,30.14,NE,45,1.7,2.9,88,0.00,,,0.00,WUHU216HW,2013-01-06 06:21:00,
2013-01-06 01:26:00,66.3,62.6,30.14,NE,45,1.5,2.9,88,0.00,,,0.00,WUHU216HW,2013-01-06 06:26:00,
2013-01-06 01:31:00,66.3,62.6,30.14,NE,45,0.0,2.6,88,0.00,,,0.00,WUHU216HW,2013-01-06 06:31:00,
2013-01-06 01:36:00,66.3,62.6,30.14,NE,45,0.0,2.6,88,0.00,,,0.00,WUHU216HW,2013-01-06 06:36:00,
2013-01-06 01:41:00,66.3,62.6,30.14,NE,45,0.0,2.0,88,0.00,,,0.00,WUHU216HW,2013-01-06 06:41:00,
2013-01-06 01:46:00,66.3,62.9,30.14,NE,45,0.4,2.2,89,0.00,,,0.00,WUHU216HW,2013-01-06 06:46:00,
2013-01-06 01:51:00,66.3,62.9,30.13,North,0,0.0,2.2,89,0.00,,,0.00,WUHU216HW,2013-01-06 06:51:00,
2013-01-06 01:56:00,66.3,62.9,30.13,NE,45,2.0,2.6,89,0.00,,,0.00,WUHU216HW,2013-01-06 06:56:00,
2013-01-06 02:01:00,66.3,62.9,30.13,ENE,68,1.3,5.8,89,0.00,,,0.00,WUHU216HW,2013-01-06 07:01:00,
2013-01-06 02:06:00,66.3,62.9,30.13,ENE,68,0.8,5.8,89,0.00,,,0.00,WUHU216HW,2013-01-06 07:06:00,
2013-01-06 02:11:00,66.3,62.9,30.13,ENE,68,3.5,3.5,89,0.00,,,0.00,WUHU216HW,2013-01-06 07:11:00,
2013-01-06 02:16:00,66.3,62.9,30.13,ENE,68,0.0,3.5,89,0.00,,,0.00,WUHU216HW,2013-01-06 07:16:00,
2013-01-06 02:21:00,66.3,62.9,30.13,ENE,68,1.1,2.4,89,0.00,,,0.00,WUHU216HW,2013-01-06 07:21:00,
2013-01-06 02:26:00,66.5,63.1,30.13,ENE,68,0.0,1.7,89,0.00,,,0.00,WUHU216HW,2013-01-06 07:26:00,
2013-01-06 02:31:00,66.3,62.9,30.13,ENE,68,1.1,5.3,89,0.00,,,0.00,WUHU216HW,2013-01-06 07:31:00,
2013-01-06 02:36:00,66.3,63.3,30.13,ENE,68,2.4,5.3,90,0.00,,,0.00,WUHU216HW,2013-01-06 07:36:00,
2013-01-06 02:41:00,66.3,63.3,30.13,ENE,68,1.3,2.9,90,0.00,,,0.00,WUHU216HW,2013-01-06 07:41:00,
2013-01-06 02:46:00,66.3,63.3,30.13,ENE,68,1.5,3.8,90,0.00,,,0.00,WUHU216HW,2013-01-06 07:46:00,
2013-01-06 02:51:00,66.3,63.3,30.13,ENE,68,2.0,3.8,90,0.00,,,0.00,WUHU216HW,2013-01-06 07:51:00,
2013-01-06 02:56:00,66.3,63.3,30.13,ENE,68,2.4,3.5,90,0.00,,,0.00,WUHU216HW,2013-01-06 07:56:00,
2013-01-06 03:01:00,66.3,63.3,30.13,ENE,68,0.0,3.5,90,0.00,,,0.00,WUHU216HW,2013-01-06 08:01:00,
2013-01-06 03:06:00,66.3,63.3,30.13,ENE,68,0.0,2.2,90,0.00,,,0.00,WUHU216HW,2013-01-06 08:06:00,
2013-01-06 03:11:00,66.3,63.3,30.12,ENE,68,2.4,5.1,90,0.00,,,0.00,WUHU216HW,2013-01-06 08:11:00,
2013-01-06 03:16:00,66.3,63.3,30.13,ENE,68,0.0,5.1,90,0.00,,,0.00,WUHU216HW,2013-01-06 08:16:00,
2013-01-06 03:21:00,66.3,63.3,30.12,ENE,68,2.4,4.6,90,0.00,,,0.00,WUHU216HW,2013-01-06 08:21:00,
2013-01-06 03:26:00,66.3,63.3,30.13,ENE,68,0.6,4.6,90,0.00,,,0.00,WUHU216HW,2013-01-06 08:26:00,
2013-01-06 03:31:00,66.3,63.3,30.12,ENE,68,0.0,1.7,90,0.00,,,0.00,WUHU216HW,2013-01-06 08:31:00,
2013-01-06 03:36:00,66.3,63.3,30.12,ENE,68,0.8,1.1,90,0.00,,,0.00,WUHU216HW,2013-01-06 08:36:00,
2013-01-06 03:41:00,66.3,63.3,30.12,ENE,68,0.4,2.9,90,0.00,,,0.00,WUHU216HW,2013-01-06 08:41:00,
2013-01-06 03:46:00,66.3,63.3,30.12,ENE,68,0.0,2.9,90,0.00,,,0.00,WUHU216HW,2013-01-06 08:46:00,
2013-01-06 03:51:00,66.5,63.5,30.12,ENE,68,0.0,0.8,90,0.00,,,0.00,WUHU216HW,2013-01-06 08:51:00,
2013-01-06 03:56:00,66.3,63.6,30.12,ENE,68,0.6,0.8,91,0.00,,,0.00,WUHU216HW,2013-01-06 08:56:00,
2013-01-06 04:01:00,66.5,63.8,30.12,ENE,68,2.4,2.4,91,0.00,,,0.00,WUHU216HW,2013-01-06 09:01:00,
2013-01-06 04:06:00,66.5,63.8,30.12,ENE,68,0.0,2.4,91,0.00,,,0.00,WUHU216HW,2013-01-06 09:06:00,
2013-01-06 04:11:00,66.5,63.8,30.12,ENE,68,3.5,3.5,91,0.00,,,0.00,WUHU216HW,2013-01-06 09:11:00,
2013-01-06 04:16:00,66.5,63.8,30.11,ENE,68,0.6,3.5,91,0.00,,,0.00,WUHU216HW,2013-01-06 09:16:00,
2013-01-06 04:21:00,66.7,63.9,30.11,ENE,68,0.0,3.1,91,0.00,,,0.00,WUHU216HW,2013-01-06 09:21:00,
2013-01-06 04:26:00,66.7,63.9,30.11,ENE,68,1.1,2.9,91,0.00,,,0.00,WUHU216HW,2013-01-06 09:26:00,
2013-01-06 04:31:00,66.7,63.9,30.11,ENE,68,0.4,2.9,91,0.00,,,0.00,WUHU216HW,2013-01-06 09:31:00,
2013-01-06 04:36:00,66.7,63.9,30.11,ENE,68,0.0,3.8,91,0.00,,,0.00,WUHU216HW,2013-01-06 09:36:00,
2013-01-06 04:41:00,66.7,63.9,30.11,ENE,68,0.0,3.8,91,0.00,,,0.00,WUHU216HW,2013-01-06 09:41:00,
2013-01-06 04:46:00,66.7,63.9,30.11,ENE,68,0.6,1.7,91,0.00,,,0.00,WUHU216HW,2013-01-06 09:46:00,
2013-01-06 04:51:00,66.7,63.9,30.11,ENE,68,0.8,2.0,91,0.00,,,0.00,WUHU216HW,2013-01-06 09:51:00,
2013-01-06 04:56:00,66.5,63.8,30.11,ENE,68,0.0,3.3,91,0.00,,,0.00,WUHU216HW,2013-01-06 09:56:00,
2013-01-06 05:01:00,66.7,63.9,30.11,ENE,68,2.9,4.0,91,0.00,,,0.00,WUHU216HW,2013-01-06 10:01:00,
2013-01-06 05:06:00,66.7,63.9,30.11,ENE,68,0.0,4.0,91,0.00,,,0.00,WUHU216HW,2013-01-06 10:06:00,
2013-01-06 05:11:00,66.9,64.1,30.11,ENE,68,0.8,3.3,91,0.00,,,0.00,WUHU216HW,2013-01-06 10:11:00,
2013-01-06 05:16:00,66.9,64.1,30.11,ENE,68,1.5,3.3,91,0.00,,,0.00,WUHU216HW,2013-01-06 10:16:00,
2013-01-06 05:21:00,66.9,64.1,30.11,ENE,68,0.8,3.3,91,0.00,,,0.00,WUHU216HW,2013-01-06 10:21:00,
2013-01-06 05:26:00,66.9,64.1,30.11,ENE,68,1.1,2.9,91,0.00,,,0.00,WUHU216HW,2013-01-06 10:26:00,
2013-01-06 05:31:00,66.9,64.1,30.10,ENE,68,0.0,2.9,91,0.00,,,0.00,WUHU216HW,2013-01-06 10:31:00,
2013-01-06 05:36:00,66.9,64.1,30.10,ENE,68,0.0,1.3,91,0.00,,,0.00,WUHU216HW,2013-01-06 10:36:00,
2013-01-06 05:41:00,66.9,64.1,30.10,ENE,68,0.0,0.8,91,0.00,,,0.00,WUHU216HW,2013-01-06 10:41:00,
2013-01-06 05:46:00,66.7,63.9,30.10,ENE,68,0.8,0.8,91,0.00,,,0.00,WUHU216HW,2013-01-06 10:46:00,
2013-01-06 05:51:00,66.7,63.9,30.11,ENE,68,0.0,1.5,91,0.00,,,0.00,WUHU216HW,2013-01-06 10:51:00,
2013-01-06 05:56:00,66.7,63.9,30.11,ENE,68,0.8,1.5,91,0.00,,,0.00,WUHU216HW,2013-01-06 10:56:00,
2013-01-06 06:01:00,66.5,63.8,30.11,ENE,68,0.0,1.3,91,0.00,,,0.00,WUHU216HW,2013-01-06 11:01:00,
2013-01-06 06:06:00,66.5,63.8,30.11,ENE,68,0.0,1.3,91,0.00,,,0.00,WUHU216HW,2013-01-06 11:06:00,
2013-01-06 06:11:00,66.5,63.8,30.11,ENE,68,0.0,0.8,91,0.00,,,0.00,WUHU216HW,2013-01-06 11:11:00,
2013-01-06 06:16:00,66.5,63.8,30.11,ENE,68,0.0,0.0,91,0.00,,,0.00,WUHU216HW,2013-01-06 11:16:00,
2013-01-06 06:21:00,66.5,63.8,30.12,ENE,68,0.0,0.0,91,0.00,,,0.00,WUHU216HW,2013-01-06 11:21:00,
2013-01-06 06:26:00,66.5,63.8,30.12,ENE,68,0.0,0.0,91,0.00,,,0.00,WUHU216HW,2013-01-06 11:26:00,
2013-01-06 06:31:00,66.5,63.8,30.12,ENE,68,0.0,0.0,91,0.00,,,0.00,WUHU216HW,2013-01-06 11:31:00,
2013-01-06 06:36:00,66.3,63.6,30.11,ENE,68,0.0,0.0,91,0.00,,,0.00,WUHU216HW,2013-01-06 11:36:00,
2013-01-06 06:41:00,66.5,63.6,30.12,ENE,68,0.0,0.0,91,0.00,,,0.00,WUHU216HW,2013-01-06 11:41:00,
2013-01-06 06:46:00,66.3,63.6,30.12,ENE,68,0.0,0.0,91,0.00,,,0.00,WUHU216HW,2013-01-06 11:46:00,
2013-01-06 06:51:00,66.3,63.6,30.12,ENE,68,0.0,0.0,91,0.00,,,0.00,WUHU216HW,2013-01-06 11:51:00,
2013-01-06 06:56:00,66.3,63.6,30.12,ENE,68,0.0,0.0,91,0.00,,,0.00,WUHU216HW,2013-01-06 11:56:00,
2013-01-06 07:01:00,66.3,63.6,30.12,ENE,68,0.0,0.0,91,0.00,,,0.00,WUHU216HW,2013-01-06 12:01:00,
2013-01-06 07:06:00,66.3,63.6,30.12,ENE,68,0.0,0.0,91,0.00,,,0.00,WUHU216HW,2013-01-06 12:06:00,
2013-01-06 07:11:00,66.3,63.6,30.12,ENE,68,0.0,0.0,91,0.00,,,0.00,WUHU216HW,2013-01-06 12:11:00,
2013-01-06 07:16:00,66.3,63.4,30.12,ENE,68,0.0,0.0,91,0.00,,,0.00,WUHU216HW,2013-01-06 12:16:00,
2013-01-06 07:21:00,66.2,63.4,30.12,ENE,68,2.0,2.0,91,0.00,,,0.00,WUHU216HW,2013-01-06 12:21:00,
2013-01-06 07:26:00,66.2,63.4,30.13,ENE,68,1.3,2.0,91,0.00,,,0.00,WUHU216HW,2013-01-06 12:26:00,
2013-01-06 07:31:00,66.2,63.4,30.12,ENE,68,0.0,2.6,91,0.00,,,0.00,WUHU216HW,2013-01-06 12:31:00,
2013-01-06 07:36:00,66.2,63.4,30.13,ENE,68,0.0,2.6,91,0.00,,,0.00,WUHU216HW,2013-01-06 12:36:00,
2013-01-06 07:41:00,66.2,63.4,30.13,ENE,68,0.0,0.0,91,0.00,,,0.00,WUHU216HW,2013-01-06 12:41:00,
2013-01-06 07:46:00,66.2,63.4,30.13,ENE,68,1.3,1.3,91,0.00,,,0.00,WUHU216HW,2013-01-06 12:46:00,
2013-01-06 07:51:00,66.0,63.2,30.14,ENE,68,0.0,1.7,91,0.00,,,0.00,WUHU216HW,2013-01-06 12:51:00,
2013-01-06 07:56:00,66.0,63.2,30.14,ENE,68,0.0,1.7,91,0.00,,,0.00,WUHU216HW,2013-01-06 12:56:00,
2013-01-06 08:01:00,66.0,63.2,30.14,ENE,68,0.0,0.6,91,0.00,,,0.00,WUHU216HW,2013-01-06 13:01:00,
2013-01-06 08:06:00,66.0,63.2,30.14,ENE,68,0.8,0.8,91,0.00,,,0.00,WUHU216HW,2013-01-06 13:06:00,
2013-01-06 08:11:00,66.0,63.2,30.13,ENE,68,2.2,2.2,91,0.00,,,0.00,WUHU216HW,2013-01-06 13:11:00,
2013-01-06 08:16:00,66.0,63.2,30.13,ENE,68,1.3,2.6,91,0.00,,,0.00,WUHU216HW,2013-01-06 13:16:00,
2013-01-06 08:21:00,66.0,63.2,30.13,ENE,68,0.8,2.6,91,0.00,,,0.00,WUHU216HW,2013-01-06 13:21:00,
2013-01-06 08:26:00,66.0,63.2,30.14,ENE,68,1.7,2.4,91,0.00,,,0.00,WUHU216HW,2013-01-06 13:26:00,
2013-01-06 08:31:00,66.0,63.2,30.14,ENE,68,0.6,1.7,91,0.00,,,0.00,WUHU216HW,2013-01-06 13:31:00,
2013-01-06 08:36:00,66.2,63.6,30.14,ENE,68,0.0,2.0,91,0.00,,,0.00,WUHU216HW,2013-01-06 13:36:00,
2013-01-06 08:41:00,66.3,63.6,30.14,ENE,68,2.0,2.2,91,0.00,,,0.00,WUHU216HW,2013-01-06 13:41:00,
2013-01-06 08:46:00,66.3,63.6,30.14,ENE,68,0.0,2.6,91,0.00,,,0.00,WUHU216HW,2013-01-06 13:46:00,
2013-01-06 08:51:00,66.3,63.9,30.14,ENE,68,0.6,2.6,92,0.00,,,0.00,WUHU216HW,2013-01-06 13:51:00,
2013-01-06 08:56:00,66.5,64.1,30.14,ENE,68,1.5,2.6,92,0.00,,,0.00,WUHU216HW,2013-01-06 13:56:00,
2013-01-06 09:01:00,66.7,64.2,30.14,ENE,68,0.0,1.5,92,0.00,,,0.00,WUHU216HW,2013-01-06 14:01:00,
2013-01-06 09:06:00,66.9,64.4,30.14,ENE,68,1.7,2.0,92,0.00,,,0.00,WUHU216HW,2013-01-06 14:06:00,
2013-01-06 09:11:00,66.9,64.4,30.15,ENE,68,0.0,2.6,92,0.00,,,0.00,WUHU216HW,2013-01-06 14:11:00,
2013-01-06 09:16:00,67.1,64.6,30.15,ENE,68,2.4,3.5,92,0.00,,,0.00,WUHU216HW,2013-01-06 14:16:00,
2013-01-06 09:21:00,67.2,64.8,30.14,ENE,68,1.7,3.5,92,0.00,,,0.00,WUHU216HW,2013-01-06 14:21:00,
2013-01-06 09:26:00,67.6,65.1,30.15,ENE,68,2.6,2.6,92,0.00,,,0.00,WUHU216HW,2013-01-06 14:26:00,
2013-01-06 09:31:00,67.8,65.3,30.15,ENE,68,0.0,2.6,92,0.00,,,0.00,WUHU216HW,2013-01-06 14:31:00,
2013-01-06 09:36:00,68.0,65.5,30.15,ENE,68,0.0,1.5,92,0.00,,,0.00,WUHU216HW,2013-01-06 14:36:00,
2013-01-06 09:41:00,68.1,65.7,30.15,ENE,68,0.0,2.4,92,0.00,,,0.00,WUHU216HW,2013-01-06 14:41:00,
2013-01-06 09:46:00,68.3,65.9,30.15,ENE,68,6.2,6.2,92,0.00,,,0.00,WUHU216HW,2013-01-06 14:46:00,
2013-01-06 09:51:00,68.5,66.0,30.15,ENE,68,0.0,6.2,92,0.00,,,0.00,WUHU216HW,2013-01-06 14:51:00,
2013-01-06 09:56:00,68.5,66.0,30.14,ENE,68,0.6,3.3,92,0.00,,,0.00,WUHU216HW,2013-01-06 14:56:00,
2013-01-06 10:01:00,68.7,66.2,30.14,ENE,68,0.0,2.4,92,0.00,,,0.00,WUHU216HW,2013-01-06 15:01:00,
2013-01-06 10:06:00,68.9,66.4,30.14,ENE,68,2.2,2.4,92,0.00,,,0.00,WUHU216HW,2013-01-06 15:06:00,
2013-01-06 10:11:00,69.0,66.6,30.14,ENE,68,3.3,3.3,92,0.00,,,0.00,WUHU216HW,2013-01-06 15:11:00,
2013-01-06 10:16:00,69.2,66.8,30.14,ENE,68,0.4,3.3,92,0.00,,,0.00,WUHU216HW,2013-01-06 15:16:00,
2013-01-06 10:21:00,69.6,67.1,30.14,East,90,1.7,3.5,92,0.00,,,0.00,WUHU216HW,2013-01-06 15:21:00,
2013-01-06 10:26:00,69.6,67.1,30.14,ENE,68,0.4,3.5,92,0.00,,,0.00,WUHU216HW,2013-01-06 15:26:00,
2013-01-06 10:31:00,69.9,67.5,30.14,SE,135,0.0,2.9,92,0.00,,,0.00,WUHU216HW,2013-01-06 15:31:00,
2013-01-06 10:36:00,70.1,67.4,30.14,ENE,68,0.0,2.6,91,0.00,,,0.00,WUHU216HW,2013-01-06 15:36:00,
2013-01-06 10:41:00,70.5,67.7,30.14,ENE,68,0.0,3.1,91,0.00,,,0.00,WUHU216HW,2013-01-06 15:41:00,
2013-01-06 10:46:00,70.8,67.9,30.14,East,90,0.0,3.1,91,0.00,,,0.00,WUHU216HW,2013-01-06 15:46:00,
2013-01-06 10:51:00,70.8,68.1,30.13,ESE,113,0.2,3.3,91,0.00,,,0.00,WUHU216HW,2013-01-06 15:51:00,
2013-01-06 10:56:00,71.2,68.4,30.13,SE,135,3.1,3.3,91,0.00,,,0.00,WUHU216HW,2013-01-06 15:56:00,
2013-01-06 11:01:00,71.4,68.3,30.14,East,90,0.8,3.1,90,0.00,,,0.00,WUHU216HW,2013-01-06 16:01:00,
2013-01-06 11:06:00,71.7,69.0,30.13,East,90,0.0,2.6,91,0.00,,,0.00,WUHU216HW,2013-01-06 16:06:00,
2013-01-06 11:11:00,71.9,68.9,30.13,East,90,0.4,3.3,90,0.00,,,0.00,WUHU216HW,2013-01-06 16:11:00,
2013-01-06 11:16:00,72.3,68.9,30.13,SE,135,1.7,4.9,90,0.00,,,0.00,WUHU216HW,2013-01-06 16:16:00,
2013-01-06 11:21:00,72.5,69.0,30.12,East,90,0.0,4.9,89,0.00,,,0.00,WUHU216HW,2013-01-06 16:21:00,
2013-01-06 11:26:00,72.8,69.1,30.12,ENE,68,3.3,3.3,88,0.00,,,0.00,WUHU216HW,2013-01-06 16:26:00,
2013-01-06 11:31:00,73.2,69.4,30.12,East,90,3.3,5.8,88,0.00,,,0.00,WUHU216HW,2013-01-06 16:31:00,
2013-01-06 11:36:00,73.4,69.6,30.12,ESE,113,1.7,5.8,88,0.00,,,0.00,WUHU216HW,2013-01-06 16:36:00,
2013-01-06 11:41:00,73.7,70.0,30.12,NE,45,1.7,2.4,88,0.00,,,0.00,WUHU216HW,2013-01-06 16:41:00,
2013-01-06 11:46:00,73.9,69.8,30.12,SW,225,3.5,3.5,87,0.00,,,0.00,WUHU216HW,2013-01-06 16:46:00,
2013-01-06 11:51:00,74.3,70.2,30.11,ESE,113,0.0,6.0,87,0.00,,,0.00,WUHU216HW,2013-01-06 16:51:00,
2013-01-06 11:56:00,74.8,70.4,30.11,SW,225,2.6,6.0,86,0.00,,,0.00,WUHU216HW,2013-01-06 16:56:00,
2013-01-06 12:01:00,75.0,70.5,30.10,SE,135,3.1,5.3,86,0.00,,,0.00,WUHU216HW,2013-01-06 17:01:00,
2013-01-06 12:06:00,75.0,70.2,30.10,South,180,3.8,5.5,85,0.00,,,0.00,WUHU216HW,2013-01-06 17:06:00,
2013-01-06 12:11:00,75.3,70.2,30.10,ESE,113,1.5,6.2,84,0.00,,,0.00,WUHU216HW,2013-01-06 17:11:00,
2013-01-06 12:16:00,75.7,70.5,30.09,SW,225,2.2,6.2,84,0.00,,,0.00,WUHU216HW,2013-01-06 17:16:00,
2013-01-06 12:21:00,75.9,70.7,30.09,SSE,158,4.9,6.4,84,0.00,,,0.00,WUHU216HW,2013-01-06 17:21:00,
2013-01-06 12:26:00,76.1,70.2,30.09,SSE,158,3.3,6.4,82,0.00,,,0.00,WUHU216HW,2013-01-06 17:26:00,
2013-01-06 12:31:00,75.9,70.0,30.09,SSE,158,1.7,5.3,82,0.00,,,0.00,WUHU216HW,2013-01-06 17:31:00,
2013-01-06 12:36:00,76.4,70.5,30.08,SSW,203,2.0,5.5,82,0.00,,,0.00,WUHU216HW,2013-01-06 17:36:00,
2013-01-06 12:41:00,76.8,70.8,30.08,South,180,4.6,5.5,82,0.00,,,0.00,WUHU216HW,2013-01-06 17:41:00,
2013-01-06 12:46:00,77.0,70.7,30.08,South,180,5.1,5.1,81,0.00,,,0.00,WUHU216HW,2013-01-06 17:46:00,
2013-01-06 12:51:00,77.1,70.5,30.07,SE,135,2.6,5.8,80,0.00,,,0.00,WUHU216HW,2013-01-06 17:51:00,
2013-01-06 12:56:00,77.5,70.8,30.07,SW,225,0.0,5.8,80,0.00,,,0.00,WUHU216HW,2013-01-06 17:56:00,
2013-01-06 13:01:00,78.4,71.3,30.07,SE,135,2.9,3.3,79,0.00,,,0.00,WUHU216HW,2013-01-06 18:01:00,
2013-01-06 13:06:00,78.8,70.5,30.06,SSW,203,6.9,8.2,76,0.00,,,0.00,WUHU216HW,2013-01-06 18:06:00,
2013-01-06 13:11:00,79.1,70.9,30.06,ESE,113,1.1,8.2,76,0.00,,,0.00,WUHU216HW,2013-01-06 18:11:00,
2013-01-06 13:16:00,79.3,71.0,30.06,SW,225,6.2,7.1,76,0.00,,,0.00,WUHU216HW,2013-01-06 18:16:00,
2013-01-06 13:21:00,78.9,70.3,30.06,SSW,203,8.7,8.7,75,0.00,,,0.00,WUHU216HW,2013-01-06 18:21:00,
2013-01-06 13:26:00,78.6,69.5,30.06,SSW,203,3.1,8.7,74,0.00,,,0.00,WUHU216HW,2013-01-06 18:26:00,
2013-01-06 13:31:00,78.6,69.9,30.05,South,180,0.0,5.5,75,0.00,,,0.00,WUHU216HW,2013-01-06 18:31:00,
2013-01-06 13:36:00,78.6,69.9,30.05,WSW,248,0.0,2.6,75,0.00,,,0.00,WUHU216HW,2013-01-06 18:36:00,
2013-01-06 13:41:00,79.5,70.8,30.05,SSE,158,0.6,2.9,75,0.00,,,0.00,WUHU216HW,2013-01-06 18:41:00,
2013-01-06 13:46:00,79.5,70.8,30.05,SE,135,0.0,2.9,74,0.00,,,0.00,WUHU216HW,2013-01-06 18:46:00,
2013-01-06 13:51:00,79.7,70.6,30.05,SSW,203,0.0,6.7,74,0.00,,,0.00,WUHU216HW,2013-01-06 18:51:00,
2013-01-06 13:56:00,79.8,70.4,30.04,SSW,203,3.3,6.7,73,0.00,,,0.00,WUHU216HW,2013-01-06 18:56:00,
2013-01-06 14:01:00,79.8,70.0,30.04,SSW,203,3.1,6.4,72,0.00,,,0.00,WUHU216HW,2013-01-06 19:01:00,
2013-01-06 14:06:00,80.4,70.5,30.04,SW,225,3.5,6.7,72,0.00,,,0.00,WUHU216HW,2013-01-06 19:06:00,
2013-01-06 14:11:00,80.4,70.1,30.04,SSW,203,0.8,6.7,71,0.00,,,0.00,WUHU216HW,2013-01-06 19:11:00,
2013-01-06 14:16:00,80.2,70.0,30.03,NW,315,0.0,2.2,71,0.00,,,0.00,WUHU216HW,2013-01-06 19:16:00,
2013-01-06 14:21:00,79.8,69.6,30.03,South,180,5.5,5.5,71,0.00,,,0.00,WUHU216HW,2013-01-06 19:21:00,
2013-01-06 14:26:00,80.7,70.5,30.04,SSE,158,3.1,5.5,71,0.00,,,0.00,WUHU216HW,2013-01-06 19:26:00,
2013-01-06 14:31:00,80.9,70.3,30.03,SSW,203,2.4,3.1,70,0.00,,,0.00,WUHU216HW,2013-01-06 19:31:00,
2013-01-06 14:36:00,80.9,69.8,30.03,NW,315,2.0,3.8,69,0.00,,,0.00,WUHU216HW,2013-01-06 19:36:00,
2013-01-06 14:41:00,80.4,69.3,30.03,SSW,203,1.7,6.4,69,0.00,,,0.00,WUHU216HW,2013-01-06 19:41:00,
2013-01-06 14:46:00,80.2,69.6,30.03,SSW,203,1.3,6.4,70,0.00,,,0.00,WUHU216HW,2013-01-06 19:46:00,
2013-01-06 14:52:00,79.8,69.2,30.03,South,180,0.0,4.9,70,0.00,,,0.00,WUHU216HW,2013-01-06 19:52:00,
2013-01-06 14:57:00,79.7,69.4,30.03,South,180,0.0,4.9,71,0.00,,,0.00,WUHU216HW,2013-01-06 19:57:00,
2013-01-06 15:02:00,79.8,70.0,30.03,SE,135,1.7,1.7,72,0.00,,,0.00,WUHU216HW,2013-01-06 20:02:00,
2013-01-06 15:07:00,80.7,70.1,30.03,WSW,248,0.0,2.0,70,0.00,,,0.00,WUHU216HW,2013-01-06 20:07:00,
2013-01-06 15:11:00,81.3,70.0,30.03,South,180,5.5,5.5,69,0.00,,,0.00,WUHU216HW,2013-01-06 20:11:00,
2013-01-06 15:13:00,81.6,70.5,30.03,South,180,0.0,5.5,69,0.00,,,0.00,WUHU216HW,2013-01-06 20:13:00,
2013-01-06 15:18:00,82.7,71.0,30.02,SSW,203,0.6,5.5,68,0.00,,,0.00,WUHU216HW,2013-01-06 20:18:00,
2013-01-06 15:23:00,83.3,70.7,30.03,WSW,248,0.8,2.0,66,0.00,,,0.00,WUHU216HW,2013-01-06 20:23:00,
2013-01-06 15:28:00,84.3,70.8,30.03,SSW,203,3.3,3.5,64,0.00,,,0.00,WUHU216HW,2013-01-06 20:28:00,
2013-01-06 15:33:00,84.9,70.9,30.03,SSW,203,5.5,5.5,63,0.00,,,0.00,WUHU216HW,2013-01-06 20:33:00,
2013-01-06 15:38:00,85.1,70.6,30.03,SSE,158,0.0,5.5,62,0.00,,,0.00,WUHU216HW,2013-01-06 20:38:00,
2013-01-06 15:43:00,85.6,71.1,30.03,North,0,0.0,4.4,62,0.00,,,0.00,WUHU216HW,2013-01-06 20:43:00,
2013-01-06 15:48:00,86.1,70.8,30.03,SW,225,3.1,4.9,61,0.00,,,0.00,WUHU216HW,2013-01-06 20:48:00,
2013-01-06 15:53:00,86.3,70.8,30.03,West,270,1.7,4.9,60,0.00,,,0.00,WUHU216HW,2013-01-06 20:53:00,
2013-01-06 15:58:00,86.5,70.5,30.03,WNW,293,2.0,4.2,59,0.00,,,0.00,WUHU216HW,2013-01-06 20:58:00,
2013-01-06 16:01:00,85.8,69.8,30.02,WNW,293,1.1,4.2,60,0.00,,,0.00,WUHU216HW,2013-01-06 21:01:00,
2013-01-06 16:06:00,84.7,69.8,30.03,WNW,293,1.7,2.0,61,0.00,,,0.00,WUHU216HW,2013-01-06 21:06:00,
2013-01-06 16:11:00,84.0,69.6,30.03,West,270,0.0,1.7,62,0.00,,,0.00,WUHU216HW,2013-01-06 21:11:00,
2013-01-06 16:16:00,84.2,69.8,30.03,West,270,0.0,0.8,62,0.00,,,0.00,WUHU216HW,2013-01-06 21:16:00,
2013-01-06 16:21:00,84.7,69.8,30.03,West,270,1.1,1.5,61,0.00,,,0.00,WUHU216HW,2013-01-06 21:21:00,
2013-01-06 16:26:00,84.3,69.5,30.03,WNW,293,0.0,1.5,61,0.00,,,0.00,WUHU216HW,2013-01-06 21:26:00,
2013-01-06 16:31:00,84.0,70.0,30.03,WNW,293,0.0,0.4,63,0.00,,,0.00,WUHU216HW,2013-01-06 21:31:00,
2013-01-06 16:37:00,83.4,69.5,30.03,WNW,293,0.0,0.0,63,0.00,,,0.00,WUHU216HW,2013-01-06 21:37:00,
2013-01-06 16:42:00,83.3,69.6,30.03,WNW,293,0.0,0.0,64,0.00,,,0.00,WUHU216HW,2013-01-06 21:42:00,
2013-01-06 16:47:00,82.9,69.4,30.03,West,270,0.0,0.0,64,0.00,,,0.00,WUHU216HW,2013-01-06 21:47:00,
2013-01-06 16:52:00,82.2,68.7,30.03,WNW,293,0.0,1.7,64,0.00,,,0.00,WUHU216HW,2013-01-06 21:52:00,
2013-01-06 16:56:00,81.6,68.7,30.04,WNW,293,0.0,1.7,65,0.00,,,0.00,WUHU216HW,2013-01-06 21:56:00,
2013-01-06 17:02:00,81.1,68.6,30.04,WNW,293,0.0,0.0,66,0.00,,,0.00,WUHU216HW,2013-01-06 22:02:00,
2013-01-06 17:07:00,80.7,68.7,30.04,WNW,293,0.0,0.0,67,0.00,,,0.00,WUHU216HW,2013-01-06 22:07:00,
2013-01-06 17:12:00,80.2,68.2,30.04,WNW,293,0.0,0.0,67,0.00,,,0.00,WUHU216HW,2013-01-06 22:12:00,
2013-01-06 17:17:00,79.8,68.3,30.04,WNW,293,0.0,0.0,68,0.00,,,0.00,WUHU216HW,2013-01-06 22:17:00,
2013-01-06 17:22:00,79.5,68.4,30.04,WNW,293,0.0,0.0,69,0.00,,,0.00,WUHU216HW,2013-01-06 22:22:00,
2013-01-06 17:27:00,78.9,68.3,30.04,WNW,293,0.0,0.0,70,0.00,,,0.00,WUHU216HW,2013-01-06 22:27:00,
2013-01-06 17:32:00,78.6,68.0,30.04,WNW,293,0.0,0.0,70,0.00,,,0.00,WUHU216HW,2013-01-06 22:32:00,
2013-01-06 17:37:00,78.0,67.5,30.04,WNW,293,0.0,0.0,70,0.00,,,0.00,WUHU216HW,2013-01-06 22:37:00,
2013-01-06 17:42:00,77.7,67.5,30.05,WNW,293,0.0,0.0,71,0.00,,,0.00,WUHU216HW,2013-01-06 22:42:00,
2013-01-06 17:47:00,77.3,67.2,30.05,WNW,293,0.0,0.0,71,0.00,,,0.00,WUHU216HW,2013-01-06 22:47:00,
2013-01-06 17:52:00,77.0,67.1,30.04,WNW,293,0.0,0.0,72,0.00,,,0.00,WUHU216HW,2013-01-06 22:52:00,
2013-01-06 17:57:00,76.4,66.7,30.05,WNW,293,0.0,0.0,72,0.00,,,0.00,WUHU216HW,2013-01-06 22:57:00,
2013-01-06 18:02:00,75.9,66.6,30.05,WNW,293,0.0,0.0,73,0.00,,,0.00,WUHU216HW,2013-01-06 23:02:00,
2013-01-06 18:07:00,75.5,66.2,30.05,WNW,293,0.0,0.0,73,0.00,,,0.00,WUHU216HW,2013-01-06 23:07:00,
2013-01-06 18:12:00,75.0,65.7,30.06,WNW,293,0.0,0.0,73,0.00,,,0.00,WUHU216HW,2013-01-06 23:12:00,
2013-01-06 18:18:00,74.6,65.8,30.06,WNW,293,0.0,0.0,74,0.00,,,0.00,WUHU216HW,2013-01-06 23:18:00,
2013-01-06 18:23:00,74.4,65.6,30.06,WNW,293,2.0,2.0,74,0.00,,,0.00,WUHU216HW,2013-01-06 23:23:00,
2013-01-06 18:28:00,74.1,65.7,30.06,WNW,293,0.0,2.0,75,0.00,,,0.00,WUHU216HW,2013-01-06 23:28:00,
2013-01-06 18:33:00,73.9,65.5,30.07,WNW,293,0.0,0.0,75,0.00,,,0.00,WUHU216HW,2013-01-06 23:33:00,
2013-01-06 18:38:00,73.9,65.5,30.07,WNW,293,0.0,2.0,75,0.00,,,0.00,WUHU216HW,2013-01-06 23:38:00,
2013-01-06 18:43:00,73.5,65.3,30.07,WNW,293,0.0,2.0,75,0.00,,,0.00,WUHU216HW,2013-01-06 23:43:00,
2013-01-06 18:48:00,73.5,65.1,30.07,WNW,293,0.0,0.0,75,0.00,,,0.00,WUHU216HW,2013-01-06 23:48:00,
2013-01-06 18:53:00,73.2,64.8,30.07,WNW,293,0.0,0.0,75,0.00,,,0.00,WUHU216HW,2013-01-06 23:53:00,
2013-01-06 18:59:00,73.2,65.2,30.07,WNW,293,0.0,0.0,76,0.00,,,0.00,WUHU216HW,2013-01-06 23:59:00,
2013-01-06 19:03:00,72.8,64.8,30.07,WNW,293,0.0,0.0,76,0.00,,,0.00,WUHU216HW,2013-01-07 00:03:00,
2013-01-06 19:09:00,72.6,64.6,30.07,WNW,293,0.0,0.0,76,0.00,,,0.00,WUHU216HW,2013-01-07 00:09:00,
2013-01-06 19:14:00,72.3,64.7,30.07,WNW,293,0.0,0.0,77,0.00,,,0.00,WUHU216HW,2013-01-07 00:14:00,
2013-01-06 19:19:00,72.1,64.5,30.07,WNW,293,0.0,0.0,77,0.00,,,0.00,WUHU216HW,2013-01-07 00:19:00,
2013-01-06 19:24:00,71.9,64.5,30.07,WNW,293,0.0,0.0,78,0.00,,,0.00,WUHU216HW,2013-01-07 00:24:00,
2013-01-06 19:29:00,71.7,64.9,30.07,WNW,293,0.0,0.0,79,0.00,,,0.00,WUHU216HW,2013-01-07 00:29:00,
2013-01-06 19:34:00,71.4,64.5,30.07,WNW,293,0.0,0.0,79,0.00,,,0.00,WUHU216HW,2013-01-07 00:34:00,
2013-01-06 19:39:00,71.2,64.3,30.07,WNW,293,0.0,0.0,79,0.00,,,0.00,WUHU216HW,2013-01-07 00:39:00,
2013-01-06 19:44:00,70.8,64.4,30.08,WNW,293,0.0,0.0,80,0.00,,,0.00,WUHU216HW,2013-01-07 00:44:00,
2013-01-06 19:49:00,70.8,64.4,30.08,WNW,293,0.0,0.0,80,0.00,,,0.00,WUHU216HW,2013-01-07 00:49:00,
2013-01-06 19:54:00,70.7,64.2,30.08,WNW,293,0.0,0.0,80,0.00,,,0.00,WUHU216HW,2013-01-07 00:54:00,
2013-01-06 19:59:00,70.3,63.8,30.08,WNW,293,0.0,0.0,80,0.00,,,0.00,WUHU216HW,2013-01-07 00:59:00,
2013-01-06 20:04:00,70.3,63.8,30.08,WNW,293,0.0,0.0,80,0.00,,,0.00,WUHU216HW,2013-01-07 01:04:00,
2013-01-06 20:09:00,70.1,64.0,30.08,WNW,293,0.0,0.0,81,0.00,,,0.00,WUHU216HW,2013-01-07 01:09:00,
2013-01-06 20:14:00,69.9,63.8,30.08,WNW,293,0.0,0.0,81,0.00,,,0.00,WUHU216HW,2013-01-07 01:14:00,
2013-01-06 20:19:00,69.9,63.6,30.08,WNW,293,0.0,0.0,81,0.00,,,0.00,WUHU216HW,2013-01-07 01:19:00,
2013-01-06 20:24:00,69.8,64.0,30.08,WNW,293,0.0,0.0,82,0.00,,,0.00,WUHU216HW,2013-01-07 01:24:00,
2013-01-06 20:29:00,69.8,64.0,30.08,WNW,293,0.0,0.0,82,0.00,,,0.00,WUHU216HW,2013-01-07 01:29:00,
2013-01-06 20:34:00,69.6,63.8,30.08,WNW,293,0.0,0.0,82,0.00,,,0.00,WUHU216HW,2013-01-07 01:34:00,
2013-01-06 20:39:00,69.6,63.8,30.08,WNW,293,0.0,0.0,82,0.00,,,0.00,WUHU216HW,2013-01-07 01:39:00,
2013-01-06 20:44:00,69.4,63.6,30.08,WNW,293,0.0,0.0,82,0.00,,,0.00,WUHU216HW,2013-01-07 01:44:00,
2013-01-06 20:49:00,69.4,63.6,30.08,WNW,293,0.0,0.0,82,0.00,,,0.00,WUHU216HW,2013-01-07 01:49:00,
2013-01-06 20:54:00,69.2,63.5,30.08,WNW,293,0.0,0.0,82,0.00,,,0.00,WUHU216HW,2013-01-07 01:54:00,
2013-01-06 20:59:00,68.9,63.1,30.08,WNW,293,0.0,0.0,82,0.00,,,0.00,WUHU216HW,2013-01-07 01:59:00,
2013-01-06 21:04:00,68.7,62.9,30.09,WNW,293,0.0,0.0,82,0.00,,,0.00,WUHU216HW,2013-01-07 02:04:00,
2013-01-06 21:09:00,68.5,62.5,30.09,WNW,293,0.0,0.0,81,0.00,,,0.00,WUHU216HW,2013-01-07 02:09:00,
2013-01-06 21:14:00,68.3,62.6,30.09,WNW,293,0.0,0.0,82,0.00,,,0.00,WUHU216HW,2013-01-07 02:14:00,
2013-01-06 21:19:00,68.1,62.5,30.09,WNW,293,0.0,0.0,82,0.00,,,0.00,WUHU216HW,2013-01-07 02:19:00,
2013-01-06 21:24:00,67.8,62.1,30.09,WNW,293,0.0,0.0,82,0.00,,,0.00,WUHU216HW,2013-01-07 02:24:00,
2013-01-06 21:29:00,67.8,62.1,30.09,WNW,293,0.0,0.0,82,0.00,,,0.00,WUHU216HW,2013-01-07 02:29:00,
2013-01-06 21:34:00,67.8,62.1,30.10,WNW,293,0.0,0.0,82,0.00,,,0.00,WUHU216HW,2013-01-07 02:34:00,
2013-01-06 21:39:00,67.6,62.1,30.10,WNW,293,0.0,0.0,82,0.00,,,0.00,WUHU216HW,2013-01-07 02:39:00,
2013-01-06 21:44:00,67.6,61.9,30.10,WNW,293,0.0,0.0,82,0.00,,,0.00,WUHU216HW,2013-01-07 02:44:00,
2013-01-06 21:49:00,67.6,61.9,30.10,WNW,293,0.0,0.0,82,0.00,,,0.00,WUHU216HW,2013-01-07 02:49:00,
2013-01-06 21:53:00,67.6,61.9,30.10,WNW,293,0.0,0.0,82,0.00,,,0.00,WUHU216HW,2013-01-07 02:53:00,
2013-01-06 21:58:00,67.6,61.9,30.10,WNW,293,0.0,0.0,82,0.00,,,0.00,WUHU216HW,2013-01-07 02:58:00,
2013-01-06 22:03:00,67.6,62.4,30.11,WNW,293,0.0,0.0,83,0.00,,,0.00,WUHU216HW,2013-01-07 03:03:00,
2013-01-06 22:08:00,67.8,62.4,30.10,WNW,293,0.0,0.0,83,0.00,,,0.00,WUHU216HW,2013-01-07 03:08:00,
2013-01-06 22:13:00,67.8,62.8,30.10,WNW,293,0.0,0.0,84,0.00,,,0.00,WUHU216HW,2013-01-07 03:13:00,
2013-01-06 22:19:00,67.8,62.8,30.10,WNW,293,0.0,0.0,84,0.00,,,0.00,WUHU216HW,2013-01-07 03:19:00,
2013-01-06 22:24:00,67.8,62.8,30.10,WNW,293,0.0,0.0,84,0.00,,,0.00,WUHU216HW,2013-01-07 03:24:00,
2013-01-06 22:29:00,67.8,62.8,30.10,WNW,293,0.0,0.0,84,0.00,,,0.00,WUHU216HW,2013-01-07 03:29:00,
2013-01-06 22:34:00,67.8,62.8,30.10,WNW,293,0.0,0.0,84,0.00,,,0.00,WUHU216HW,2013-01-07 03:34:00,
2013-01-06 22:39:00,67.8,62.8,30.10,WNW,293,0.0,0.0,84,0.00,,,0.00,WUHU216HW,2013-01-07 03:39:00,
2013-01-06 22:44:00,67.6,62.8,30.10,WNW,293,0.0,0.0,84,0.00,,,0.00,WUHU216HW,2013-01-07 03:44:00,
2013-01-06 22:49:00,67.6,62.3,30.10,WNW,293,0.0,0.0,83,0.00,,,0.00,WUHU216HW,2013-01-07 03:49:00,
2013-01-06 22:54:00,67.2,61.9,30.10,WNW,293,0.0,0.0,83,0.00,,,0.00,WUHU216HW,2013-01-07 03:54:00,
2013-01-06 22:59:00,67.2,62.2,30.09,WNW,293,0.0,0.0,84,0.00,,,0.00,WUHU216HW,2013-01-07 03:59:00,
2013-01-06 23:04:00,67.2,62.2,30.09,WNW,293,0.0,0.0,84,0.00,,,0.00,WUHU216HW,2013-01-07 04:04:00,
2013-01-06 23:09:00,66.9,61.9,30.09,WNW,293,0.0,0.0,84,0.00,,,0.00,WUHU216HW,2013-01-07 04:09:00,
2013-01-06 23:14:00,66.7,61.7,30.09,WNW,293,0.0,0.0,84,0.00,,,0.00,WUHU216HW,2013-01-07 04:14:00,
2013-01-06 23:19:00,66.5,61.5,30.09,WNW,293,0.0,0.0,84,0.00,,,0.00,WUHU216HW,2013-01-07 04:19:00,
2013-01-06 23:24:00,66.3,61.0,30.09,WNW,293,0.0,0.0,83,0.00,,,0.00,WUHU216HW,2013-01-07 04:24:00,
2013-01-06 23:29:00,66.3,61.0,30.09,WNW,293,0.0,0.0,83,0.00,,,0.00,WUHU216HW,2013-01-07 04:29:00,
2013-01-06 23:34:00,66.0,60.6,30.09,WNW,293,0.0,0.0,83,0.00,,,0.00,WUHU216HW,2013-01-07 04:34:00,
2013-01-06 23:39:00,66.0,60.6,30.09,WNW,293,0.0,21.9,83,0.00,,,0.00,WUHU216HW,2013-01-07 04:39:00,
2013-01-06 23:44:00,65.8,60.5,30.09,WNW,293,0.0,21.9,83,0.00,,,0.00,WUHU216HW,2013-01-07 04:44:00,
2013-01-06 23:49:00,65.6,60.3,30.09,WNW,293,0.0,0.0,83,0.00,,,0.00,WUHU216HW,2013-01-07 04:49:00,
2013-01-06 23:54:00,65.6,60.6,30.09,WNW,293,0.0,0.0,84,0.00,,,0.00,WUHU216HW,2013-01-07 04:54:00,
2013-01-06 23:59:00,65.6,60.6,30.09,WNW,293,0.0,0.0,84,0.00,,,0.00,WUHU216HW,2013-01-07 04:59:00,